Terminal Aerodrome Forecast
Issued by NWS Rapid City, SD

Home | Current Version | Previous Version | Graphics & Text | Print | Product List | Glossary On
Versions: 1 2 3 4 5 6 7 8 9 10 11 12 13 14 15 16 17 18 19 20 21 22
000
FTUS43 KUNR 150600 AAA
TAFRAP
TAF AMD
KRAP 150613Z 1506/1606 34024G34KT P6SM -FZDZSN OVC013
     FM150900 34024G34KT 3SM -SN OVC010
     FM151200 34026G36KT 2SM -SN BLSN OVC008
     FM152000 34020KT 5SM -SN BLSN OVC025
     FM160100 34015KT P6SM BKN050=

USA.gov is the U.S. government's official web portal to all federal, state and local government web resources and services.